| time (UTC) | temp C | wind direction | speed KPH | gust KPH | rain 1hr cm | rain 24hr cm | rain mn cm | humidity % | barometer mb |
| 20260503181004 | 9 | 19 | 1.6 | 4.8 | 0.00 | 0.03 | 0.00 | 85 | 1026.8 |
| 20260503180004 | 9 | 19 | 1.6 | 4.8 | 0.00 | 0.03 | 0.00 | 86 | 1026.9 |
| 20260503175004 | 10 | 19 | 3.2 | 6.4 | 0.00 | 0.03 | 0.00 | 86 | 1026.9 |
| 20260503174004 | 9 | 19 | 3.2 | 6.4 | 0.00 | 0.03 | 0.00 | 86 | 1026.9 |
| 20260503173004 | 9 | 19 | 3.2 | 6.4 | 0.00 | 0.03 | 0.00 | 86 | 1026.8 |
| 20260503172004 | 9 | 19 | 4.8 | 6.4 | 0.00 | 0.03 | 0.00 | 86 | 1026.9 |
| 20260503171004 | 9 | 19 | 3.2 | 4.8 | 0.00 | 0.03 | 0.00 | 85 | 1026.9 |
| 20260503151004 | 11 | 20 | 1.6 | 4.8 | 0.00 | 0.03 | 0.03 | 81 | 1026.4 |
| 20260503131004 | 11 | 69 | 4.8 | 8.0 | 0.00 | 0.03 | 0.03 | 85 | 1026.3 |
| 20260503081003 | 19 | 206 | 3.2 | 6.4 | 0.00 | 0.03 | 0.03 | 58 | 1024.4 |
| 20260503072004 | 18 | 180 | 4.8 | 11.3 | 0.00 | 0.03 | 0.03 | 58 | 1024.4 |
| 20260503071004 | 18 | 133 | 3.2 | 9.7 | 0.00 | 0.03 | 0.03 | 59 | 1024.4 |
| 20260503055004 | 18 | 93 | 4.8 | 12.9 | 0.00 | 0.03 | 0.03 | 64 | 1024.8 |
| 20260503054004 | 17 | 38 | 4.8 | 12.9 | 0.00 | 0.03 | 0.03 | 65 | 1024.7 |
| 20260503053004 | 17 | 37 | 4.8 | 12.9 | 0.00 | 0.03 | 0.03 | 65 | 1024.8 |
| 20260503052003 | 17 | 63 | 4.8 | 12.9 | 0.00 | 0.03 | 0.03 | 66 | 1024.9 |
| 20260503051004 | 17 | 26 | 4.8 | 14.5 | 0.00 | 0.03 | 0.03 | 67 | 1025.1 |
| 20260503050004 | 17 | 75 | 6.4 | 14.5 | 0.00 | 0.03 | 0.03 | 68 | 1025.3 |
| 20260503045003 | 17 | 73 | 6.4 | 17.7 | 0.00 | 0.03 | 0.03 | 68 | 1025.4 |
| 20260503044003 | 17 | 135 | 3.2 | 17.7 | 0.00 | 0.03 | 0.03 | 71 | 1025.5 |
| 20260503043025 | 16 | 348 | 3.2 | 12.9 | 0.00 | 0.03 | 0.03 | 72 | 1025.6 |
| 20260503042004 | 16 | 39 | 4.8 | 14.5 | 0.00 | 0.03 | 0.03 | 73 | 1025.8 |
| 20260503041004 | 15 | 74 | 4.8 | 17.7 | 0.00 | 0.03 | 0.03 | 77 | 1026.0 |
| 20260503040004 | 15 | 63 | 3.2 | 17.7 | 0.00 | 0.03 | 0.03 | 80 | 1026.0 |
| 20260503035004 | 14 | 50 | 6.4 | 17.7 | 0.00 | 0.03 | 0.03 | 84 | 1026.2 |
| 20260503034004 | 13 | 50 | 4.8 | 20.9 | 0.00 | 0.03 | 0.03 | 87 | 1026.3 |
| 20260503033004 | 12 | 187 | 3.2 | 9.7 | 0.00 | 0.03 | 0.03 | 89 | 1026.6 |
| 20260503032004 | 12 | 84 | 4.8 | 14.5 | 0.00 | 0.03 | 0.03 | 90 | 1026.8 |
| 20260503031004 | 12 | 122 | 3.2 | 12.9 | 0.00 | 0.03 | 0.03 | 91 | 1026.9 |
| 20260503030004 | 11 | 71 | 3.2 | 14.5 | 0.00 | 0.03 | 0.03 | 91 | 1026.9 |
| 20260503025003 | 11 | 54 | 4.8 | 12.9 | 0.00 | 0.03 | 0.03 | 92 | 1027.1 |
| 20260503024003 | 11 | 131 | 3.2 | 11.3 | 0.00 | 0.03 | 0.03 | 92 | 1027.2 |
| 20260503023004 | 10 | 138 | 3.2 | 16.1 | 0.00 | 0.03 | 0.03 | 92 | 1027.2 |
| 20260503022003 | 10 | 167 | 3.2 | 14.5 | 0.03 | 0.03 | 0.03 | 92 | 1027.3 |
| 20260503021003 | 10 | 215 | 3.2 | 8.0 | 0.03 | 0.03 | 0.03 | 92 | 1027.3 |
| 20260503020004 | 10 | 148 | 3.2 | 12.9 | 0.03 | 0.03 | 0.03 | 93 | 1027.4 |
| 20260503015025 | 9 | 101 | 3.2 | 16.1 | 0.03 | 0.03 | 0.03 | 93 | 1027.3 |
| 20260503014003 | 9 | 181 | 3.2 | 11.3 | 0.03 | 0.03 | 0.03 | 92 | 1027.2 |
| 20260503013003 | 9 | 95 | 3.2 | 16.1 | 0.03 | 0.03 | 0.03 | 93 | 1027.2 |
| 20260503012003 | 8 | 183 | 3.2 | 6.4 | 0.00 | 0.03 | 0.00 | 93 | 1027.2 |
| 20260503011024 | 8 | 181 | 3.2 | 11.3 | 0.00 | 0.03 | 0.00 | 93 | 1027.4 |
| 20260503010025 | 8 | 9 | 3.2 | 11.3 | 0.00 | 0.03 | 0.00 | 93 | 1027.4 |
| 20260503005003 | 7 | 170 | 1.6 | 8.0 | 0.00 | 0.03 | 0.00 | 93 | 1027.3 |
| 20260503004003 | 7 | 44 | 3.2 | 8.0 | 0.00 | 0.03 | 0.00 | 93 | 1027.4 |
| 20260503003003 | 7 | 216 | 1.6 | 6.4 | 0.00 | 0.03 | 0.00 | 92 | 1027.5 |
| 20260503002003 | 6 | 229 | 3.2 | 12.9 | 0.00 | 0.03 | 0.00 | 92 | 1027.5 |
| 20260503001003 | 6 | 70 | 3.2 | 16.1 | 0.00 | 0.03 | 0.00 | 93 | 1027.3 |
| 20260503000024 | 6 | 128 | 1.6 | 8.0 | 0.00 | 0.03 | 0.00 | 92 | 1027.0 |
| 20260502235003 | 5 | 94 | 1.6 | 8.0 | 0.00 | 0.03 | 0.00 | 92 | 1026.8 |
| 20260502234004 | 5 | 88 | 1.6 | 9.7 | 0.00 | 0.03 | 0.00 | 92 | 1026.6 |
| 20260502233003 | 5 | 76 | 0.0 | 3.2 | 0.00 | 0.03 | 0.00 | 92 | 1026.5 |
| 20260502232003 | 5 | 77 | 1.6 | 4.8 | 0.00 | 0.03 | 0.00 | 92 | 1026.3 |
| 20260502231024 | 5 | 109 | 1.6 | 4.8 | 0.00 | 0.03 | 0.00 | 92 | 1026.2 |
| 20260502230003 | 5 | 186 | 0.0 | 3.2 | 0.00 | 0.03 | 0.00 | 92 | 1026.0 |
| 20260502225003 | 5 | 186 | 0.0 | 1.6 | 0.00 | 0.03 | 0.00 | 92 | 1026.0 |
| 20260502224024 | 5 | 186 | 0.0 | 1.6 | 0.00 | 0.03 | 0.00 | 91 | 1026.0 |
| 20260502223004 | 5 | 186 | 0.0 | 1.6 | 0.00 | 0.03 | 0.00 | 91 | 1026.0 |
| 20260502222025 | 5 | 186 | 0.0 | 1.6 | 0.00 | 0.03 | 0.00 | 91 | 1025.9 |
| 20260502221025 | 5 | 186 | 0.0 | 1.6 | 0.00 | 0.03 | 0.00 | 91 | 1025.9 |
| 20260502220004 | 6 | 186 | 0.0 | 3.2 | 0.00 | 0.03 | 0.00 | 91 | 1025.8 |
| 20260502215003 | 6 | 186 | 1.6 | 3.2 | 0.00 | 0.03 | 0.00 | 91 | 1025.8 |
| 20260502214003 | 6 | 186 | 1.6 | 3.2 | 0.00 | 0.03 | 0.00 | 91 | 1025.6 |
| 20260502213025 | 6 | 186 | 1.6 | 3.2 | 0.00 | 0.03 | 0.00 | 91 | 1025.6 |
| 20260502212025 | 5 | 186 | 0.0 | 3.2 | 0.00 | 0.03 | 0.00 | 91 | 1025.5 |
| 20260502211004 | 5 | 186 | 0.0 | 3.2 | 0.00 | 0.03 | 0.00 | 91 | 1025.4 |
| 20260502210004 | 5 | 186 | 1.6 | 1.6 | 0.00 | 0.03 | 0.00 | 91 | 1025.3 |
| 20260502205004 | 5 | 186 | 0.0 | 3.2 | 0.00 | 0.03 | 0.00 | 91 | 1025.2 |
| 20260502204004 | 6 | 186 | 0.0 | 3.2 | 0.00 | 0.03 | 0.00 | 91 | 1025.2 |
| 20260502203004 | 6 | 186 | 0.0 | 1.6 | 0.00 | 0.03 | 0.00 | 91 | 1025.1 |
| 20260502202004 | 6 | 186 | 0.0 | 1.6 | 0.00 | 0.03 | 0.00 | 91 | 1025.0 |
| 20260502201004 | 6 | 186 | 0.0 | 1.6 | 0.00 | 0.03 | 0.00 | 90 | 1025.1 |
| 20260502200004 | 6 | 186 | 0.0 | 1.6 | 0.00 | 0.03 | 0.00 | 91 | 1025.1 |
| 20260502195004 | 6 | 0 | 0.0 | 0.0 | 0.00 | 0.03 | 0.00 | 91 | 1025.1 |
| 20260502194004 | 6 | 186 | 0.0 | 1.6 | 0.00 | 0.03 | 0.00 | 91 | 1025.1 |
| 20260502193025 | 6 | 186 | 0.0 | 1.6 | 0.00 | 0.03 | 0.00 | 91 | 1025.1 |
| 20260502192003 | 6 | 186 | 0.0 | 1.6 | 0.00 | 0.03 | 0.00 | 91 | 1025.2 |
| 20260502191005 | 6 | 186 | 0.0 | 1.6 | 0.00 | 0.03 | 0.00 | 91 | 1025.2 |
| 20260502190004 | 6 | 186 | 1.6 | 4.8 | 0.00 | 0.03 | 0.00 | 91 | 1025.2 |
| 20260502185003 | 6 | 186 | 1.6 | 4.8 | 0.00 | 0.03 | 0.00 | 90 | 1025.2 |
| 20260502184003 | 6 | 186 | 1.6 | 4.8 | 0.00 | 0.03 | 0.00 | 90 | 1025.1 |
| 20260502183004 | 6 | 186 | 0.0 | 3.2 | 0.00 | 0.03 | 0.00 | 90 | 1025.1 |
| 20260502182004 | 6 | 186 | 0.0 | 1.6 | 0.00 | 0.03 | 0.00 | 90 | 1025.1 |